スペースウォッチ-パンスターズ彗星

497P/Spacewatch-PanSTARRS (2011)

English version
Home page
Updated on November 26, 2024

---------------------------------------------------------------------

・ プロフィール

符号 497P/2011 UA134
発見日 2011年10月24日、25日
発見光度 20.4等、21.4等
発見者 Spacewatch project, Pan-STARRS 1 telescope (Haleakala)

・ 写真集

・ 軌道要素

                    Epoch = 2011 Dec. 25.0 TT
     T = 2011 Dec.  7.20483 TT        Peri. =  32.32930
     e = 0.6325168                    Node  =  40.63547 2000.0
     q = 2.0513528 AU                 Incl. =  10.53802
       a =  5.5821671 AU   n = 0.07473083   P =  13.19 years

・ 光度変化

        m1 = -139   + 5 logΔ + 500 log r(t + 8)    [ ,0]  (              〜2011年12月 7日)
        m1 =    6.6 + 5 logΔ +  30 log r(t + 100)  [0, ]  (2011年12月 7日〜              )

---------------------------------------------------------------------

軌道要素は、CBET 5464に掲載されたものです。
光度グラフはComet for Windowsで作成したものです。

---------------------------------------------------------------------

Copyright(C) Seiichi Yoshida (comet@aerith.net). All rights reserved.